This is the latest recevied weather packets stored in our database for station/object KC3WWU. If no packets are shown the sender has not sent any weather packets the latest 10 day(s).
| Time | Temp. | Humidity | Pressure | Rain* | Wind** | Luminosity | Snow |
|---|---|---|---|---|---|---|---|
| 1777545932 | 6.11° C | 99% | 1007.3 hPa | 0 mm | - | 8 W/m² | - |
| 1777545628 | 6.11° C | 99% | 1007.3 hPa | 0 mm | - | 7 W/m² | - |
| 1777545325 | 6.11° C | 99% | 1007.3 hPa | 0 mm | - | 5 W/m² | - |
| 1777545023 | 6.11° C | 99% | 1007.2 hPa | 1.78 mm | - | 2 W/m² | - |
| 1777544719 | 6.11° C | 99% | 1007.4 hPa | 1.78 mm | - | 1 W/m² | - |
| 1777544414 | 6.11° C | 99% | 1007.5 hPa | 0 mm | - | 1 W/m² | - |
| 1777544111 | 6.11° C | 99% | 1007.4 hPa | 0 mm | - | 1 W/m² | - |
| 1777543809 | 6.11° C | 99% | 1007.3 hPa | 0 mm | - | 0 W/m² | - |
| 1777543504 | 6.11° C | 99% | 1007.5 hPa | 0 mm | - | 0 W/m² | - |
| 1777543201 | 6.11° C | 99% | 1007.2 hPa | 1.27 mm | - | 0 W/m² | - |
| 1777542897 | 6.11° C | 99% | 1007.2 hPa | 1.27 mm | - | 0 W/m² | - |
| 1777542594 | 6.11° C | 99% | 1007.4 hPa | 1.78 mm | - | 0 W/m² | - |
| 1777542290 | 6.11° C | 99% | 1007.3 hPa | 1.78 mm | - | 0 W/m² | - |
| 1777541987 | 6.11° C | 99% | 1007.4 hPa | 1.27 mm | - | 0 W/m² | - |
| 1777541684 | 6.11° C | 99% | 1007.2 hPa | 1.27 mm | - | 0 W/m² | - |
| 1777541381 | 6.11° C | 99% | 1007.3 hPa | 0 mm | - | 0 W/m² | - |
| 1777541076 | 6.11° C | 99% | 1007.4 hPa | 0 mm | - | 0 W/m² | - |
| 1777540774 | 6.11° C | 99% | 1007.6 hPa | 0 mm | - | 0 W/m² | - |
| 1777540472 | 6.11° C | 99% | 1007.2 hPa | 0 mm | - | 0 W/m² | - |
| 1777540168 | 6.11° C | 99% | 1007.3 hPa | 0 mm | - | 0 W/m² | - |
| 1777539863 | 6.11° C | 99% | 1007.3 hPa | 0 mm | - | 0 W/m² | - |
| 1777539560 | 6.11° C | 99% | 1007.2 hPa | 0 mm | - | 0 W/m² | - |
| 1777539256 | 6.11° C | 99% | 1007.1 hPa | 0 mm | - | 0 W/m² | - |
| 1777538953 | 6.11° C | 99% | 1007.2 hPa | 0 mm | - | 0 W/m² | - |
| 1777538648 | 6.67° C | 99% | 1007 hPa | 0 mm | - | 0 W/m² | - |
* Rain latest hour (hover to see other rain measurements)
** Current wind speed in m/s (hover to see current wind gust speed)